Overview Statistics Trail Chart Weather Telemetry Raw packets
 

This is the latest recevied weather packets stored in our database for station/object KD4PMP. If no packets are shown the sender has not sent any weather packets the latest 10 day(s).

<< 40 41 42 43 44 45 46 >>
Time Temp. Humidity Pressure Rain* Wind** Luminosity Snow
1788007483 20° C 94% 1018.6 hPa 0 mm - - -
1788006877 19.44° C 95% 1018.5 hPa 0 mm - - -
1788006270 18.89° C 96% 1018.6 hPa 0 mm - - -
1788005663 18.89° C 96% 1018.6 hPa 0 mm - - -
1788005057 18.33° C 96% 1018.5 hPa 0 mm - - -
1788004451 18.33° C 95% 1018.4 hPa 0 mm - - -
1788003844 18.33° C 95% 1018.4 hPa 0 mm - - -
1788003238 18.33° C 95% 1018.2 hPa 0 mm - - -
1788002632 18.33° C 95% 1018.1 hPa 0 mm - - -
1788002025 18.33° C 95% 1017.9 hPa 0 mm - - -
1788001419 18.33° C 95% 1017.8 hPa 0 mm - - -
1788000812 18.33° C 94% 1017.6 hPa 0 mm - - -
1788000206 18.33° C 94% 1017.7 hPa 0 mm - - -
1787999599 18.89° C 94% 1017.7 hPa 0 mm - - -
1787998993 18.89° C 94% 1017.6 hPa 0 mm - - -
1787998387 18.89° C 94% 1017.8 hPa 0 mm - - -
1787997780 18.89° C 93% 1017.6 hPa 0 mm - - -
1787997174 18.89° C 93% 1017.5 hPa 0 mm - - -
1787996567 18.89° C 93% 1017.6 hPa 0 mm - - -
1787995961 18.89° C 93% 1017.7 hPa 0 mm - - -
1787995355 19.44° C 92% 1017.7 hPa 0 mm - - -
1787994748 19.44° C 92% 1017.6 hPa 0 mm - - -
1787994142 19.44° C 92% 1017.6 hPa 0 mm - - -
1787993535 19.44° C 93% 1017.6 hPa 0 mm - - -
1787992929 19.44° C 93% 1017.6 hPa 0 mm - - -

* Rain latest hour (hover to see other rain measurements)
** Current wind speed in m/s (hover to see current wind gust speed)